Flag for Greenland Weather past 2 weeks in Ilulissat, Greenland

Now
7 °F

Snow showers. Broken clouds.


Feels Like: -16 °F
Forecast: 0 / 7 °F
Wind: 26 mph from East

Location: Jacobshavn Lufthavn

Current Time: Dec 22, 2014 at 9:27:31 AM

Latest Report: Dec 22, 2014 at 8:50 AM


Visibility: 1 mi

Pressure: 30.01 "Hg

Humidity: 72%

Dew point: 0 °F

Location of IlulissatLocation

Historic Weather in Ilulissat — Graph

°F

Ilulissat temperature yesterday

Maximum temperature yesterday: 14 °F (at 2:50 PM)
Minimum temperature yesterday: 9 °F (at 1:50 AM)
Average temperature yesterday: 11 °F

Past Weeks' High & Low Weather Summary

 TemperatureHumidityPressure
High16 °F (Dec 9, 3:50 PM)92% (Dec 9, 8:50 PM)30.30 "Hg (Dec 9, 8:50 PM)
Low-8 °F (Dec 19, 12:50 PM)39% (Dec 8, 5:50 AM)29.18 "Hg (Dec 8, 3:50 PM)
Average7 °F67%29.67 "Hg
* Reported Dec 7 7:50 AM — Dec 22 7:50 AM, Ilulissat, Weather by CustomWeather, © 2014

Note: Actual official high and low records may vary slightly from our data, if they occured in-between our weather recording intervals... More about our weather records

Advertising

Ilulissat weather history for previous 24 hours

 ConditionsComfort  
Time TempWeatherWind HumidityBarometerVisibility
7:50 AM
Dec 22
7 °FSnow flurries. Broken clouds.21 mph78%30.01 "Hg5 mi
6:50 AM9 °FSnow flurries. Broken clouds.17 mph72%30.01 "HgN/A
5:50 AM9 °FOvercast.16 mph72%30.01 "Hg4 mi
4:50 AM9 °FOvercast.14 mph72%29.98 "HgN/A
3:50 AM9 °FIce fog.17 mph72%29.98 "Hg2 mi
2:50 AM10 °FSnow flurries. Overcast.15 mph67%29.98 "Hg5 mi
1:50 AM10 °FOvercast.16 mph72%29.95 "HgN/A
12:50 AM10 °FPartly sunny.7 mph67%29.95 "HgN/A
11:50 PM
Dec 21
9 °FPassing clouds.8 mph72%29.95 "Hg6 mi
10:50 PM9 °FSnow flurries. Passing clouds.8 mph72%29.95 "HgN/A
9:50 PM9 °FSnow flurries. Ice fog.9 mph78%29.95 "Hg3 mi
8:50 PM10 °FSnow flurries. Ice fog.9 mph79%29.92 "Hg3 mi
7:50 PM10 °FLight snow. Overcast.9 mph85%29.92 "Hg2 mi
6:50 PM12 °FSnow flurries. Mostly cloudy.9 mph79%29.89 "Hg2 mi
5:50 PM14 °FSnow showers. Ice fog.7 mph92%29.89 "Hg1 mi
4:50 PM14 °FSnow flurries. Mostly cloudy.14 mph85%29.86 "Hg1 mi
3:50 PM14 °FSnow showers. Mostly cloudy.14 mph85%29.86 "Hg1 mi
2:50 PM14 °FSnow showers. Ice fog.9 mph85%29.83 "Hg1 mi
1:50 PM12 °FSnow flurries. Broken clouds.6 mph79%29.83 "HgN/A
11:50 AM12 °FLight snow. More clouds than sun.16 mph73%29.80 "Hg2 mi
10:50 AM12 °FSnow. Ice fog.14 mph79%29.77 "Hg1 mi
9:50 AM10 °FLight snow. Overcast.18 mph72%29.77 "Hg5 mi
Weather by CustomWeather, © 2014

See weather overviewHow to use our weather pages